Wind_Speed
5 7 9 10 12 13 15 15 14 14 14 13 11 10 8 6 3 2 1 2 3 4 4 5 5 6 7 7 8 8 9 10 11 12 12 12 13 13 12 11 11 9 10 10 10 10 8 6 7 8 8 9 10 11 12 11 9 8 8 8 7 7 7
6 8 10 11 12 13 14 15 15 14 14 13 11 9 8 6 3 2 2 3 4 5 5 5 5 5 5 5 6 6 6 6 6 7 8 10 11 12 13 12 11 10 10 10 10 11 8 4 6 8 8 9 9 9 10 8 6 6 6 6 5 5 6
8 9 10 11 12 14 14 15 15 14 13 13 12 10 8 6 3 2 3 4 5 6 7 6 6 5 5 5 4 4 4 3 3 4 6 7 9 10 11 11 11 10 9 10 10 9 6 4 6 8 8 8 8 8 8 8 6 4 5 6 6 6 6
10 10 11 12 13 14 15 15 14 13 13 12 11 9 8 6 4 3 4 5 6 7 7 8 8 7 7 6 6 5 4 4 3 3 3 4 4 6 7 7 7 6 5 5 6 5 5 5 6 7 7 7 9 9 8 8 7 4 4 6 6 6 7
12 12 13 13 14 16 16 14 13 13 13 11 10 9 7 5 3 3 3 5 6 7 8 8 9 9 8 8 7 7 6 6 5 5 5 4 4 3 4 5 5 5 4 4 3 3 3 4 4 5 5 6 7 7 6 6 6 5 6 7 7 8 9
13 13 14 14 15 16 16 14 13 12 11 10 10 8 7 5 3 3 4 5 6 7 8 8 9 9 9 9 8 8 8 7 7 7 7 6 6 6 5 5 4 4 5 5 4 3 3 3 3 5 5 5 6 6 6 6 7 7 8 9 9 10 11
14 15 15 16 16 16 16 14 12 11 10 9 8 7 6 4 3 3 4 6 7 8 8 8 9 8 8 8 8 8 7 7 7 7 7 7 7 7 6 5 5 4 4 4 4 4 4 3 4 5 6 5 6 6 7 7 8 7 8 8 9 10 11
15 16 16 17 16 16 15 13 12 10 8 7 7 6 4 3 3 4 5 7 8 9 9 10 9 9 9 9 9 9 9 8 8 8 7 7 7 7 6 5 4 4 4 4 4 4 4 4 4 4 3 2 2 3 4 5 5 4 5 5 6 7 7
17 17 18 18 17 16 15 13 11 9 7 6 7 6 3 2 4 5 6 8 10 10 11 11 11 11 11 11 12 12 12 11 10 10 9 8 8 7 7 6 5 4 3 3 3 3 3 3 4 4 3 3 2 2 3 4 4 4 5 5 6 6 6
18 19 20 20 18 17 16 14 12 10 10 8 6 5 2 1 4 5 7 8 10 11 12 13 12 12 12 12 13 13 13 12 12 12 11 10 10 9 8 7 7 6 5 3 3 2 2 2 2 3 3 3 3 2 3 3 4 5 5 6 6 6 7
20 21 22 21 20 18 18 17 15 14 13 11 5 3 2 2 4 5 7 8 10 11 12 12 12 12 11 11 12 12 11 11 11 11 11 10 10 9 9 9 8 8 7 5 5 4 4 3 3 3 2 2 3 2 2 1 2 2 3 4 4 5 5
20 20 20 21 21 20 19 18 17 16 15 11 5 6 4 4 6 6 6 7 8 9 9 10 10 9 9 9 8 9 8 8 8 8 8 8 8 7 7 7 7 7 7 6 5 5 5 4 4 4 3 3 2 2 1 1 1 1 1 2 3 3 4
17 17 17 18 20 20 19 18 18 17 15 10 5 8 7 6 6 6 6 6 6 6 6 6 5 5 5 5 4 4 4 5 5 5 4 4 4 4 4 4 4 4 4 4 3 3 3 3 3 3 3 2 2 1 1 1 2 2 2 2 3 3 4
15 15 15 15 17 18 19 19 18 17 16 12 8 8 10 9 8 7 7 7 6 5 5 4 3 2 2 1 1 1 1 1 1 2 2 2 2 1 1 1 1 1 1 2 2 2 2 2 2 1 1 1 2 2 2 3 3 4 4 5 5 6 6
13 14 13 13 14 16 18 19 19 18 17 15 11 10 13 13 11 10 10 9 9 8 7 6 5 5 5 5 5 5 5 5 5 5 4 4 4 4 4 3 3 3 3 4 4 4 4 4 4 4 4 4 4 5 5 6 7 7 8 8 9 9 10
12 12 12 12 13 15 17 19 20 19 18 17 15 13 15 16 16 14 13 13 12 11 10 9 9 9 8 8 8 8 8 8 8 9 8 8 7 6 6 6 6 6 7 7 7 7 7 6 6 7 7 7 6 7 7 8 9 10 10 10 11 12 12
11 11 11 12 13 14 17 19 20 20 20 19 18 16 17 18 19 18 16 16 15 14 14 13 13 12 11 11 11 11 11 11 11 11 11 11 10 10 9 9 9 9 9 9 10 10 10 10 10 10 10 9 9 9 9 10 11 11 12 12 13 13 14
11 11 11 12 12 13 16 18 19 21 22 21 21 19 18 19 20 20 19 19 18 17 17 16 15 15 14 14 13 14 14 15 15 14 14 14 13 13 13 12 11 11 11 11 11 12 12 13 13 13 13 12 12 11 12 12 13 13 14 14 15 15 16
12 12 12 12 12 12 14 15 17 19 21 23 22 21 20 20 21 22 22 22 21 21 21 21 19 17 17 16 16 17 17 18 19 18 18 17 15 14 14 12 11 12 13 12 13 14 14 14 15 15 14 13 13 13 13 14 15 16 17 17 18 18 18
13 13 13 14 14 13 13 14 15 17 19 21 22 22 22 22 22 24 24 24 24 25 25 24 23 22 21 20 20 20 19 18 19 18 17 16 14 13 13 12 11 12 13 14 15 15 14 14 17 16 13 13 13 13 14 15 16 17 18 19 20 20 20
15 15 15 15 15 16 16 15 16 17 18 20 22 23 23 24 25 25 25 25 26 26 25 24 25 25 25 24 23 21 19 17 16 15 15 14 13 13 13 13 13 13 14 14 16 16 15 16 18 15 13 14 15 15 16 18 19 19 20 20 22 23 24
17 17 17 16 16 17 17 18 18 17 18 20 22 23 24 26 27 27 27 27 27 27 25 24 24 25 27 27 26 22 19 17 17 16 15 14 13 13 13 13 13 13 13 13 14 15 15 16 17 15 15 17 17 17 19 21 21 22 22 23 24 25 26
19 19 19 19 18 18 18 18 19 18 19 21 23 24 26 27 28 27 28 28 27 26 25 25 26 27 28 28 26 22 20 19 19 17 15 14 14 14 14 13 13 13 14 14 14 15 15 16 17 16 16 17 18 18 20 21 22 23 24 26 28 28 28
20 20 20 20 20 19 18 19 19 19 20 22 24 26 28 29 30 29 29 28 28 26 26 26 26 26 25 25 24 22 21 20 19 18 16 15 15 15 15 15 15 15 16 16 16 16 16 17 18 18 18 18 20 20 21 22 24 25 26 28 29 30 30
19 20 20 21 21 20 19 19 20 21 22 25 28 29 30 31 31 30 29 27 27 26 25 24 23 21 20 21 22 21 21 20 19 18 18 17 16 16 16 15 16 16 17 17 17 17 17 18 20 21 21 21 22 23 24 24 25 26 27 28 29 30 30
18 19 20 21 22 22 22 21 22 23 24 26 28 29 31 32 30 29 28 26 26 26 24 21 20 19 19 20 22 21 21 19 19 19 17 16 16 15 14 14 14 16 17 18 18 19 19 20 21 22 23 23 24 24 25 26 26 27 28 28 29 31 31
18 19 20 22 23 24 24 24 25 25 25 25 26 27 29 31 29 28 27 25 25 25 23 20 20 19 18 20 21 20 19 19 18 18 17 16 15 14 14 14 15 17 19 20 20 20 20 21 22 23 24 24 24 24 25 26 27 27 28 29 30 31 31
20 20 21 22 23 23 25 26 26 27 26 25 26 27 29 30 29 28 27 26 25 23 21 20 20 19 19 19 19 19 19 18 18 17 17 17 16 16 17 18 18 19 20 21 21 21 21 22 23 24 24 25 25 26 25 26 27 28 29 30 31 32 32
20 21 21 23 23 24 26 27 28 29 29 28 28 29 29 29 27 26 24 23 22 20 19 19 20 20 19 19 19 18 18 18 18 18 18 18 18 18 19 19 20 20 21 21 21 21 22 22 23 24 25 26 27 28 29 29 31 31 32 33 33 34 35
22 22 23 23 24 25 26 28 30 32 33 32 30 29 29 28 26 24 20 16 15 15 17 19 19 19 19 18 18 17 18 18 19 19 18 18 18 19 19 19 20 20 21 21 21 22 22 23 24 25 26 27 29 30 31 32 33 34 34 35 36 37 38
25 25 25 25 26 27 28 28 30 33 34 34 33 31 29 27 25 23 21 18 16 16 18 19 19 18 18 17 16 16 17 18 18 18 18 19 19 19 19 20 21 21 22 22 23 23 24 25 26 26 27 28 29 30 31 32 33 34 35 36 37 37 37
27 27 28 29 29 30 30 30 30 31 33 33 33 31 29 26 24 22 21 20 20 20 19 19 19 18 17 16 16 16 17 18 19 19 20 20 21 21 21 22 23 24 24 25 25 26 26 26 27 27 27 28 29 30 31 32 33 35 35 36 37 37 38
29 29 29 30 30 31 31 30 29 30 30 31 31 31 29 27 26 25 24 24 24 23 22 21 20 19 18 17 17 17 18 19 20 21 21 22 22 23 24 25 26 27 27 27 28 28 28 28 28 28 28 29 30 31 32 34 35 36 37 38 39 39 40
31 30 30 30 30 30 30 29 28 28 29 29 30 30 30 29 28 27 27 27 27 27 26 24 22 21 20 20 19 19 19 21 22 22 23 24 25 26 27 28 29 29 29 29 29 29 29 29 29 29 30 31 33 34 35 36 37 37 38 39 40 41 42
33 32 31 30 30 29 29 28 27 26 27 28 28 29 29 29 28 28 26 26 27 27 27 26 25 24 23 23 23 22 22 23 23 24 25 27 28 29 30 31 31 32 32 32 31 31 31 30 30 31 32 33 35 36 37 38 38 39 39 40 41 41 42
35 34 33 32 31 30 29 29 28 28 27 28 28 29 29 29 29 28 28 27 26 26 26 26 26 26 26 27 27 26 26 25 25 26 26 27 29 31 32 33 34 34 34 33 32 32 32 31 32 33 34 35 36 37 38 39 39 40 40 40 40 40 41
38 37 36 35 34 33 32 32 32 31 31 30 30 30 31 31 31 31 31 31 30 30 30 31 31 30 30 32 33 33 31 29 28 28 28 29 32 34 35 35 35 35 34 33 32 32 32 32 33 34 35 35 36 36 38 39 40 40 40 40 39 39 39
Wind_Direction
291 307 319 327 336 340 342 344 343 347 357 1 5 11 15 18 29 56 126 173 182 177 192 204 204 204 205 216 225 229 235 240 245 247 251 254 255 256 255 253 254 255 258 262 263 262 262 261 258 260 265 267 270 270 270 272 274 273 271 272 265 244 237
276 293 307 318 327 331 334 337 337 340 350 358 0 8 15 21 40 74 112 142 154 147 161 184 184 182 185 198 210 216 222 230 239 243 246 250 252 255 256 256 258 259 260 262 265 266 266 273 271 265 266 271 273 270 270 275 277 273 270 273 269 246 240
267 280 297 309 317 322 325 329 332 335 343 355 358 3 12 20 42 85 120 131 138 141 150 157 151 148 154 162 168 173 182 194 216 227 233 241 245 248 251 252 255 255 257 256 255 262 266 261 266 270 270 269 263 259 268 275 269 256 251 252 252 249 251
263 275 290 302 309 314 319 325 330 332 338 351 355 2 13 19 43 88 126 135 137 138 140 141 138 139 140 140 138 135 136 143 158 176 190 212 224 231 232 233 238 240 242 243 238 242 253 257 267 276 274 263 257 257 264 267 262 256 256 258 254 252 257
263 274 287 298 305 311 318 324 328 329 336 349 354 3 15 23 47 83 119 135 140 139 140 140 139 140 140 139 138 135 134 134 135 134 136 145 156 183 210 218 227 234 232 234 232 225 234 249 263 275 276 268 264 265 260 260 271 280 274 268 260 252 254
263 274 284 293 300 307 315 321 321 324 334 348 354 1 16 31 54 91 118 132 139 140 142 143 143 144 143 143 141 139 137 131 126 124 122 126 132 143 168 189 200 212 217 217 220 226 231 241 250 263 270 269 271 275 271 269 274 275 268 266 265 263 262
262 271 279 286 291 299 309 312 312 317 329 347 353 355 12 40 69 105 124 131 132 132 133 135 137 139 140 140 137 134 132 127 124 125 123 124 128 132 139 147 157 166 179 186 193 210 219 223 233 245 254 260 270 281 284 282 277 273 269 268 269 270 272
262 270 275 279 286 296 303 302 299 305 320 345 356 351 5 49 85 113 128 129 125 121 120 120 120 122 123 123 122 116 114 112 113 116 117 120 123 125 127 129 134 139 145 155 164 178 182 181 191 205 218 232 257 279 289 291 289 286 280 278 279 279 282
261 269 272 275 282 291 296 290 286 293 306 334 350 344 349 59 98 118 125 122 120 116 113 111 108 110 111 110 109 105 103 103 102 103 104 107 111 113 117 123 127 127 128 134 146 163 169 169 178 187 192 195 199 234 265 273 279 283 281 281 284 285 287
258 265 269 274 279 284 286 281 274 274 285 304 325 328 329 100 117 125 125 119 118 115 111 110 107 108 108 106 105 103 101 101 99 98 97 96 98 99 102 106 107 105 102 104 109 114 121 136 158 175 187 187 179 197 245 259 268 273 274 276 280 285 288
255 261 266 271 275 277 278 275 268 270 286 299 286 263 266 166 147 137 132 124 122 121 119 119 118 116 114 110 109 107 103 102 100 98 97 93 91 91 94 96 97 96 95 95 96 95 93 96 104 114 125 141 145 160 190 231 273 275 272 276 279 283 288
254 260 265 268 268 268 269 269 269 272 291 303 254 219 229 197 172 157 150 142 137 135 131 131 130 127 125 121 119 116 112 110 107 103 101 98 95 91 87 86 88 90 90 91 91 90 88 85 81 83 79 76 81 104 146 217 283 291 279 274 277 283 287
255 261 267 268 264 261 258 260 265 270 284 296 245 213 227 220 198 186 178 172 164 155 149 145 141 139 139 133 130 127 125 125 124 119 113 107 103 95 88 81 74 70 67 69 70 72 78 78 71 65 60 52 43 37 15 315 307 308 306 302 303 306 304
255 260 266 268 262 255 251 253 258 265 274 283 265 234 236 233 223 217 212 208 202 193 188 188 190 199 203 215 235 240 246 234 204 187 175 169 167 159 140 119 94 27 3 348 342 344 346 352 2 2 354 341 328 321 319 319 318 319 321 323 323 320 319
254 259 264 266 259 251 248 249 253 260 266 273 273 258 247 241 238 235 232 232 232 226 221 222 232 239 247 259 266 270 277 280 279 273 265 254 242 235 236 238 240 246 252 263 273 283 293 300 302 300 298 300 307 314 316 316 316 317 320 320 320 319 317
255 261 264 262 255 248 246 247 249 254 260 264 267 265 255 248 247 245 244 247 248 245 242 240 243 247 251 258 264 269 272 275 277 275 272 270 265 258 254 252 250 250 254 257 260 263 264 268 273 279 284 290 296 302 306 308 309 311 312 313 313 313 313
260 264 265 259 251 243 242 244 246 249 253 257 260 261 256 252 252 252 254 256 257 257 257 255 255 256 257 259 264 268 271 274 276 272 266 264 265 266 265 263 260 256 255 259 263 265 266 264 264 267 271 276 282 289 294 298 299 299 301 303 304 306 307
262 264 265 260 250 240 239 243 245 245 248 252 255 256 252 250 251 253 256 259 261 262 263 262 262 263 265 266 268 271 275 277 276 273 269 263 260 262 260 258 260 260 258 258 260 263 265 266 266 268 270 274 278 283 288 291 291 291 292 294 296 299 300
262 265 267 265 256 244 239 242 243 243 245 248 251 251 248 247 250 253 256 258 259 260 261 261 260 262 265 268 270 274 279 281 279 276 272 266 262 262 261 257 259 265 267 268 268 265 262 262 265 264 266 272 276 279 282 285 287 289 291 293 294 295 296
261 265 268 269 266 255 245 244 244 243 242 244 248 249 246 245 249 253 257 258 258 258 258 258 259 261 264 265 268 272 278 282 280 276 272 266 262 265 268 269 270 274 280 283 283 280 277 278 277 270 264 272 279 280 283 286 286 288 291 293 295 295 294
258 263 267 272 271 261 253 252 249 242 238 239 243 245 244 245 248 252 256 258 259 260 260 258 257 260 263 264 264 268 274 278 275 270 267 262 259 262 268 272 273 274 278 280 283 288 291 292 292 289 284 287 288 289 291 292 290 290 291 291 291 291 291
251 255 259 265 267 261 257 256 253 245 239 238 241 244 246 246 249 253 256 259 260 260 260 259 260 262 264 263 261 263 270 272 268 263 261 259 260 264 267 272 275 275 277 277 279 285 288 290 294 295 294 294 294 293 293 292 291 292 292 291 290 290 290
246 248 250 255 260 262 262 259 256 251 245 240 241 244 247 249 252 255 258 261 262 262 262 264 267 269 266 259 254 257 264 264 261 261 260 260 263 267 270 274 276 277 278 280 283 285 288 291 293 292 291 292 291 290 290 288 288 290 291 290 291 292 292
249 251 252 254 258 261 262 261 259 256 250 244 241 243 246 249 251 252 254 258 259 260 263 267 271 272 264 251 245 250 256 256 257 259 261 264 268 269 270 273 275 277 280 285 287 287 287 288 288 286 285 284 282 283 283 284 286 287 287 286 288 291 294
252 253 256 259 261 262 262 260 257 255 252 246 243 242 244 246 248 250 252 254 255 256 258 262 265 264 255 241 237 242 248 250 253 256 260 264 267 268 271 275 279 282 284 287 289 288 286 285 284 285 284 281 280 280 280 280 281 282 284 285 287 291 295
253 254 256 259 262 264 263 261 258 257 257 255 254 253 251 249 249 250 250 250 252 255 256 256 257 254 243 234 233 238 244 248 252 257 261 265 267 271 276 281 285 286 287 289 290 289 289 287 286 287 287 286 285 284 283 283 284 285 287 289 290 292 295
253 256 258 260 262 264 265 264 262 262 262 261 262 262 260 257 255 253 250 248 252 255 254 254 255 252 243 236 237 242 247 251 255 259 264 267 270 276 280 284 287 288 290 292 292 291 290 289 289 289 289 289 288 287 287 287 287 288 289 290 291 292 294
251 253 255 258 261 263 265 265 264 264 264 263 262 263 264 263 261 257 250 244 244 245 245 248 252 253 250 247 247 249 251 253 256 260 264 268 274 280 282 285 287 287 289 291 290 291 291 290 290 291 291 291 291 291 290 290 289 290 291 292 293 294 296
252 252 253 256 259 262 264 265 265 266 267 267 267 267 267 266 264 260 248 234 230 234 240 245 249 249 249 249 249 250 252 255 259 263 268 273 278 281 282 283 284 284 285 287 288 290 291 290 290 290 290 291 290 290 290 290 290 291 292 294 295 295 295
258 259 259 259 260 260 261 262 264 265 266 267 267 267 268 267 266 265 258 243 234 237 243 245 244 244 245 245 248 252 255 259 263 266 270 273 276 278 280 281 283 284 286 288 291 292 293 292 292 291 291 291 290 290 290 291 292 292 293 293 293 293 294
263 261 260 260 261 262 262 261 261 263 264 265 266 267 268 268 267 266 264 258 250 245 244 244 243 243 245 247 252 257 260 263 265 267 269 272 275 278 280 282 285 287 290 293 295 295 295 294 294 293 294 293 292 292 293 293 293 293 292 292 291 292 293
263 262 260 260 260 260 260 259 258 259 261 261 262 264 265 264 262 259 258 256 252 246 242 242 242 243 246 250 253 257 261 264 266 269 272 274 278 282 284 286 288 291 294 296 297 296 295 294 294 294 295 295 295 295 294 293 293 292 292 292 292 292 292
263 262 261 260 258 256 254 253 253 255 257 258 259 261 261 259 257 254 253 252 251 248 243 240 240 242 245 249 252 255 261 265 268 270 274 276 279 282 285 287 289 292 294 296 297 296 295 294 294 294 295 294 294 294 293 293 293 293 293 293 293 293 293
260 260 259 258 257 255 252 251 250 251 253 255 257 258 259 259 258 256 254 252 250 247 244 241 240 241 244 247 251 257 263 267 268 270 274 277 279 281 284 286 288 290 292 294 294 294 292 290 290 291 292 292 293 294 295 295 295 295 294 294 295 295 296
258 257 256 255 254 252 250 249 249 250 252 254 256 257 258 259 260 258 256 252 249 246 244 243 243 245 247 250 253 258 262 264 266 269 273 276 277 279 282 285 287 289 290 292 292 291 289 288 288 289 291 293 295 296 297 297 297 296 296 296 297 298 299
257 255 253 252 251 250 249 249 248 249 251 254 256 257 258 259 259 258 257 255 253 251 249 248 249 250 252 255 256 257 258 259 262 265 268 271 275 279 283 285 286 287 288 290 290 290 289 289 290 291 292 294 296 297 298 298 298 298 298 298 297 298 298
257 255 253 251 251 251 251 251 250 249 250 252 254 256 257 258 259 258 257 255 254 254 253 252 252 253 255 258 261 260 257 257 261 265 268 271 275 280 282 283 284 285 287 288 288 288 289 290 291 292 293 294 296 298 299 299 298 298 297 297 297 297 297
Height
3148 3149 3149 3150 3150 3150 3150 3150 3150 3149 3148 3147 3146 3145 3144 3143 3143 3143 3143 3143 3143 3144 3144 3144 3144 3144 3145 3145 3146 3146 3147 3147 3147 3148 3148 3149 3149 3149 3150 3150 3151 3152 3153 3153 3153 3154 3155 3154 3155 3155 3156 3156 3156 3155 3155 3155 3155 3155 3154 3154 3154 3155 3155
3147 3148 3148 3149 3149 3149 3150 3150 3150 3149 3148 3147 3146 3144 3144 3143 3143 3143 3143 3143 3143 3143 3144 3144 3143 3143 3144 3144 3144 3145 3145 3146 3146 3147 3147 3148 3148 3148 3148 3149 3150 3151 3152 3153 3153 3154 3154 3154 3154 3155 3155 3155 3155 3155 3155 3155 3155 3155 3154 3154 3154 3155 3155
3146 3147 3148 3148 3149 3149 3149 3149 3149 3148 3148 3147 3146 3145 3144 3143 3143 3143 3143 3143 3143 3143 3143 3143 3143 3143 3143 3143 3144 3144 3144 3145 3145 3146 3146 3146 3147 3147 3147 3148 3149 3150 3151 3152 3152 3153 3153 3154 3154 3154 3154 3155 3155 3155 3155 3155 3155 3154 3154 3154 3155 3155 3155
3145 3146 3147 3147 3148 3148 3149 3149 3149 3148 3147 3146 3146 3145 3144 3143 3143 3142 3142 3143 3143 3143 3143 3143 3143 3143 3143 3143 3143 3144 3144 3144 3144 3145 3145 3146 3146 3146 3147 3147 3148 3149 3150 3151 3151 3152 3152 3153 3153 3153 3153 3154 3154 3154 3154 3154 3154 3154 3154 3154 3155 3155 3155
3144 3145 3145 3146 3147 3147 3148 3148 3148 3148 3147 3146 3145 3145 3144 3143 3143 3143 3143 3143 3143 3143 3143 3143 3143 3143 3143 3143 3143 3143 3144 3144 3144 3144 3145 3145 3146 3146 3147 3147 3148 3149 3150 3150 3150 3151 3152 3153 3153 3153 3153 3153 3153 3154 3154 3154 3154 3154 3154 3154 3154 3154 3154
3143 3144 3144 3145 3146 3146 3147 3147 3147 3147 3146 3145 3145 3145 3144 3143 3143 3143 3143 3143 3143 3143 3143 3143 3143 3143 3143 3143 3143 3144 3144 3144 3144 3144 3144 3145 3145 3146 3147 3147 3148 3148 3149 3150 3150 3151 3152 3152 3153 3153 3153 3153 3153 3153 3154 3154 3154 3153 3153 3153 3153 3153 3153
3142 3143 3144 3144 3145 3145 3146 3146 3146 3146 3145 3145 3145 3145 3144 3144 3143 3143 3143 3143 3143 3143 3143 3143 3143 3143 3143 3144 3144 3144 3144 3144 3144 3144 3144 3145 3145 3146 3146 3147 3147 3148 3148 3149 3149 3150 3151 3152 3152 3153 3153 3153 3153 3153 3153 3153 3153 3153 3153 3153 3152 3152 3152
3140 3141 3142 3143 3144 3145 3145 3145 3145 3145 3145 3145 3145 3145 3144 3144 3143 3143 3143 3143 3143 3143 3143 3144 3144 3144 3144 3144 3144 3144 3144 3144 3144 3145 3145 3145 3145 3146 3146 3147 3147 3148 3148 3148 3149 3150 3150 3151 3152 3152 3152 3153 3153 3153 3153 3153 3153 3153 3152 3152 3152 3152 3152
3139 3140 3141 3142 3143 3143 3144 3145 3145 3145 3145 3145 3145 3145 3144 3144 3144 3144 3144 3144 3144 3144 3144 3144 3144 3144 3145 3145 3145 3145 3145 3145 3145 3145 3145 3145 3146 3146 3146 3147 3147 3147 3148 3148 3149 3149 3150 3150 3151 3151 3152 3152 3153 3153 3153 3153 3153 3152 3152 3152 3151 3151 3151
3138 3139 3140 3140 3142 3142 3143 3144 3144 3144 3145 3145 3145 3145 3144 3144 3144 3144 3144 3144 3144 3144 3144 3144 3145 3145 3145 3145 3145 3145 3145 3146 3146 3146 3146 3146 3146 3147 3147 3147 3147 3148 3148 3148 3149 3149 3149 3150 3150 3151 3151 3152 3152 3153 3153 3152 3152 3152 3151 3151 3151 3151 3150
3137 3138 3138 3139 3140 3141 3142 3142 3143 3144 3144 3144 3144 3145 3144 3144 3144 3144 3144 3144 3144 3144 3144 3145 3145 3145 3146 3146 3146 3146 3146 3146 3146 3146 3146 3147 3147 3147 3147 3148 3148 3148 3149 3149 3149 3149 3150 3150 3150 3151 3151 3151 3152 3152 3152 3152 3152 3151 3151 3151 3150 3150 3150
3136 3136 3137 3138 3139 3140 3140 3141 3142 3143 3143 3143 3143 3144 3144 3144 3144 3144 3144 3145 3145 3145 3145 3145 3145 3146 3146 3146 3146 3146 3147 3147 3147 3147 3147 3147 3147 3147 3148 3148 3148 3149 3149 3149 3149 3150 3150 3150 3150 3151 3151 3151 3151 3152 3152 3152 3151 3151 3151 3150 3150 3150 3149
3135 3135 3135 3136 3137 3138 3139 3140 3141 3141 3142 3142 3142 3143 3144 3144 3144 3144 3145 3145 3145 3145 3145 3145 3146 3146 3146 3146 3146 3146 3146 3147 3147 3147 3147 3147 3147 3147 3147 3148 3148 3148 3149 3149 3150 3150 3150 3150 3151 3151 3151 3151 3151 3151 3151 3151 3151 3151 3150 3150 3150 3149 3149
3134 3134 3134 3135 3135 3136 3137 3139 3140 3140 3141 3141 3142 3142 3143 3144 3144 3144 3144 3145 3145 3145 3145 3145 3145 3146 3146 3146 3146 3147 3147 3147 3147 3147 3147 3147 3147 3147 3147 3147 3148 3148 3148 3148 3149 3149 3150 3150 3150 3150 3150 3150 3151 3151 3151 3150 3150 3150 3150 3149 3149 3149 3148
3133 3133 3133 3133 3133 3134 3135 3137 3138 3139 3139 3140 3140 3141 3142 3142 3143 3143 3144 3144 3144 3144 3144 3144 3145 3145 3145 3145 3146 3146 3146 3147 3147 3147 3147 3147 3147 3147 3147 3147 3147 3147 3147 3148 3148 3148 3149 3149 3149 3149 3149 3149 3149 3149 3149 3149 3149 3149 3148 3148 3148 3148 3147
3131 3132 3132 3132 3132 3133 3134 3135 3137 3137 3138 3138 3139 3139 3140 3141 3142 3142 3143 3143 3143 3144 3144 3144 3144 3144 3144 3144 3145 3145 3145 3146 3146 3146 3146 3146 3146 3146 3146 3146 3146 3146 3147 3147 3147 3147 3147 3148 3148 3148 3148 3148 3148 3148 3148 3148 3147 3147 3147 3147 3147 3146 3146
3130 3130 3130 3131 3131 3131 3132 3133 3134 3135 3136 3136 3137 3137 3138 3139 3140 3141 3141 3142 3142 3143 3143 3143 3143 3143 3143 3143 3144 3144 3144 3144 3144 3145 3145 3145 3145 3145 3145 3145 3145 3145 3145 3145 3145 3146 3146 3146 3147 3147 3147 3147 3147 3147 3147 3147 3146 3146 3146 3145 3145 3145 3145
3128 3129 3129 3129 3129 3130 3130 3131 3132 3133 3134 3134 3135 3136 3136 3137 3138 3139 3139 3140 3141 3141 3141 3141 3141 3141 3141 3142 3142 3142 3142 3143 3143 3143 3143 3143 3144 3144 3144 3144 3144 3144 3144 3144 3144 3144 3144 3144 3145 3145 3145 3145 3146 3146 3146 3145 3145 3144 3144 3144 3144 3143 3143
3127 3127 3127 3127 3127 3128 3129 3129 3130 3130 3131 3132 3133 3133 3134 3135 3136 3136 3137 3138 3138 3139 3139 3139 3139 3139 3139 3139 3140 3140 3140 3140 3140 3141 3141 3141 3141 3142 3142 3142 3142 3142 3142 3142 3142 3142 3142 3142 3142 3142 3143 3143 3144 3144 3144 3143 3143 3143 3142 3142 3142 3141 3141
3125 3125 3125 3125 3125 3126 3127 3128 3128 3129 3129 3130 3130 3131 3132 3133 3134 3134 3134 3135 3135 3135 3136 3136 3136 3136 3136 3137 3137 3137 3138 3138 3138 3138 3138 3138 3139 3139 3139 3140 3140 3140 3140 3140 3140 3140 3140 3140 3140 3140 3140 3141 3141 3141 3141 3141 3141 3141 3141 3140 3140 3139 3139
3123 3123 3123 3124 3124 3124 3125 3126 3126 3127 3127 3128 3128 3129 3130 3130 3131 3131 3132 3132 3132 3132 3133 3133 3133 3133 3134 3134 3135 3135 3136 3136 3136 3136 3136 3136 3137 3137 3137 3137 3138 3138 3138 3138 3138 3138 3138 3138 3137 3137 3138 3138 3138 3139 3139 3139 3139 3139 3139 3138 3138 3137 3136
3122 3122 3122 3122 3122 3122 3122 3123 3124 3124 3125 3125 3126 3127 3127 3127 3128 3129 3129 3129 3130 3130 3130 3130 3130 3131 3131 3131 3132 3133 3134 3134 3134 3134 3134 3134 3134 3135 3135 3135 3136 3136 3136 3136 3136 3136 3136 3136 3136 3136 3136 3136 3136 3136 3136 3136 3136 3136 3136 3135 3135 3134 3133
3120 3120 3120 3120 3120 3120 3120 3120 3121 3121 3122 3122 3123 3124 3124 3124 3125 3126 3126 3126 3127 3127 3127 3127 3127 3127 3127 3128 3129 3130 3131 3131 3132 3132 3132 3132 3132 3132 3133 3133 3134 3134 3134 3134 3135 3134 3134 3134 3134 3134 3134 3135 3134 3134 3134 3134 3133 3133 3133 3132 3131 3131 3130
3118 3118 3118 3118 3118 3118 3118 3118 3118 3118 3119 3119 3120 3120 3120 3121 3121 3121 3122 3123 3123 3124 3123 3123 3124 3124 3123 3124 3126 3128 3128 3129 3130 3130 3130 3130 3130 3130 3131 3131 3131 3132 3132 3132 3132 3132 3132 3132 3132 3132 3132 3132 3132 3132 3132 3132 3131 3130 3130 3129 3128 3127 3127
3115 3115 3115 3116 3116 3116 3116 3116 3116 3115 3115 3115 3115 3116 3116 3116 3117 3118 3119 3120 3120 3121 3120 3120 3121 3121 3121 3122 3124 3125 3126 3127 3128 3128 3128 3128 3128 3128 3128 3128 3129 3129 3129 3129 3129 3129 3129 3129 3129 3129 3129 3129 3129 3129 3129 3129 3128 3127 3126 3126 3125 3123 3123
3113 3113 3113 3113 3114 3114 3114 3113 3113 3113 3112 3112 3113 3113 3113 3113 3114 3116 3116 3117 3117 3118 3118 3118 3118 3119 3119 3120 3121 3123 3124 3124 3125 3126 3126 3126 3127 3127 3126 3126 3126 3126 3126 3127 3127 3126 3126 3126 3126 3126 3126 3126 3125 3125 3125 3124 3124 3123 3122 3122 3121 3119 3119
3110 3110 3111 3111 3111 3111 3111 3111 3110 3110 3110 3110 3111 3111 3111 3111 3112 3112 3113 3113 3114 3114 3114 3115 3115 3116 3117 3118 3119 3120 3121 3122 3123 3123 3124 3124 3124 3125 3125 3125 3125 3124 3123 3124 3124 3124 3124 3123 3123 3123 3122 3122 3122 3121 3121 3120 3120 3119 3119 3118 3117 3116 3115
3107 3107 3108 3108 3108 3109 3108 3108 3108 3107 3107 3107 3108 3108 3107 3108 3108 3108 3109 3109 3110 3110 3111 3112 3113 3114 3115 3116 3117 3118 3119 3119 3120 3120 3121 3121 3121 3122 3122 3122 3122 3122 3121 3121 3121 3121 3121 3121 3120 3120 3119 3119 3118 3117 3117 3117 3116 3115 3115 3114 3113 3112 3111
3104 3104 3105 3105 3105 3105 3105 3105 3105 3105 3104 3104 3104 3104 3104 3105 3105 3105 3105 3106 3106 3107 3108 3109 3111 3112 3113 3114 3115 3116 3116 3116 3117 3117 3117 3118 3118 3118 3119 3119 3119 3119 3119 3119 3118 3118 3118 3118 3117 3117 3116 3115 3115 3114 3113 3113 3112 3111 3110 3110 3109 3107 3106
3101 3101 3101 3102 3102 3102 3102 3102 3102 3101 3101 3101 3101 3101 3101 3102 3102 3102 3103 3104 3104 3105 3106 3107 3108 3109 3110 3111 3112 3112 3113 3113 3113 3113 3114 3114 3115 3115 3116 3116 3116 3116 3116 3116 3116 3115 3115 3114 3114 3113 3113 3112 3111 3110 3110 3109 3108 3107 3106 3105 3104 3103 3102
3097 3098 3098 3098 3098 3098 3098 3098 3098 3098 3097 3097 3097 3098 3098 3098 3099 3100 3101 3102 3103 3103 3104 3104 3106 3106 3107 3108 3109 3109 3109 3109 3110 3110 3111 3111 3112 3112 3113 3113 3113 3113 3113 3112 3112 3112 3111 3111 3110 3109 3109 3108 3107 3107 3106 3105 3104 3103 3102 3101 3100 3099 3098
3093 3094 3094 3094 3095 3095 3094 3094 3094 3094 3094 3094 3094 3094 3094 3095 3096 3097 3098 3099 3100 3101 3101 3102 3103 3103 3104 3104 3105 3105 3106 3106 3106 3107 3107 3107 3108 3108 3109 3109 3109 3109 3109 3109 3109 3108 3108 3107 3107 3106 3105 3105 3104 3103 3102 3101 3100 3099 3098 3097 3096 3095 3093
3089 3089 3089 3090 3090 3090 3090 3090 3090 3090 3090 3090 3091 3091 3091 3092 3093 3094 3095 3096 3097 3098 3099 3099 3100 3100 3100 3101 3102 3102 3103 3103 3103 3104 3103 3103 3104 3104 3105 3105 3105 3105 3105 3105 3105 3105 3104 3104 3103 3102 3102 3101 3100 3099 3098 3097 3096 3094 3093 3092 3091 3089 3088
3084 3085 3085 3085 3085 3086 3086 3086 3086 3086 3087 3087 3087 3088 3088 3089 3089 3090 3091 3092 3093 3094 3096 3096 3096 3096 3097 3097 3098 3098 3099 3100 3100 3100 3100 3100 3100 3101 3101 3101 3101 3102 3102 3102 3102 3101 3101 3100 3099 3099 3098 3097 3096 3095 3093 3092 3091 3090 3088 3086 3085 3084 3082
3079 3080 3080 3081 3081 3081 3082 3082 3082 3083 3083 3083 3084 3084 3085 3085 3086 3087 3088 3089 3089 3090 3091 3092 3092 3093 3093 3093 3094 3095 3095 3096 3096 3097 3097 3097 3096 3096 3097 3097 3098 3098 3097 3097 3098 3097 3097 3096 3095 3094 3093 3092 3091 3090 3088 3087 3086 3084 3083 3081 3080 3078 3076
3074 3075 3076 3076 3076 3077 3077 3078 3078 3078 3079 3079 3079 3080 3081 3081 3082 3082 3083 3084 3085 3086 3087 3088 3088 3089 3089 3090 3090 3091 3092 3092 3093 3093 3094 3093 3092 3092 3093 3093 3093 3094 3094 3094 3093 3093 3092 3091 3091 3090 3089 3087 3086 3085 3084 3082 3081 3079 3078 3076 3075 3073 3072
3068 3069 3070 3071 3071 3072 3072 3073 3073 3074 3074 3075 3075 3076 3076 3077 3077 3078 3078 3080 3081 3082 3082 3083 3084 3084 3085 3086 3086 3087 3088 3088 3089 3089 3090 3090 3089 3089 3089 3089 3089 3090 3090 3090 3089 3089 3088 3087 3086 3085 3084 3083 3082 3081 3079 3078 3076 3075 3073 3072 3070 3069 3067